• En España
  • Lista de países
  • Para 7 días
  • Temperatura del agua
  • Mapa Satelital
  • El tiempo en el mapa
  • Informadores
  • user-avatar
    Iniciar sesión

    Tiempo cada hora Wien

    Hoy, 23 Junio, Sábado

    Tiempo Temperatura Precipitaciones Viento Presión Humedad
    00:00 +9°C° 0 mm 5 mps 747 mmHg 82%
    01:00 +9°C° 0 mm 5 mps 748 mmHg 83%
    02:00 +9°C° 0 mm 5 mps 748 mmHg 83%
    03:00 +9°C° 0 mm 5 mps 747 mmHg 84%
    04:00 +8°C° 0 mm 4 mps 747 mmHg 85%
    05:00 +10°C° 0 mm 5 mps 747 mmHg 81%
    06:00 +12°C° 0 mm 5 mps 747 mmHg 78%
    07:00 +13°C° 0 mm 5 mps 747 mmHg 74%
    08:00 +14°C° 0,1 mm 6 mps 747 mmHg 70%
    09:00 +14°C° 0,1 mm 6 mps 747 mmHg 67%
    10:00 +15°C° 0,1 mm 6 mps 747 mmHg 63%
    11:00 +16°C° 0,1 mm 6 mps 747 mmHg 60%
    12:00 +17°C° 0,1 mm 6 mps 747 mmHg 57%
    13:00 +17°C° 0,1 mm 7 mps 746 mmHg 53%
    14:00 +17°C° 0 mm 6 mps 746 mmHg 53%
    15:00 +19°C° 0 mm 6 mps 746 mmHg 53%
    16:00 +19°C° 0 mm 6 mps 746 mmHg 52%
    17:00 +17°C° 0 mm 5 mps 746 mmHg 58%
    18:00 +17°C° 0 mm 4 mps 746 mmHg 63%
    19:00 +16°C° 0 mm 3 mps 746 mmHg 69%
    20:00 +14°C° 0 mm 3 mps 747 mmHg 72%
    21:00 +13°C° 0 mm 3 mps 747 mmHg 75%
    22:00 +12°C° 0 mm 3 mps 747 mmHg 78%
    23:00 +12°C° 0,1 mm 3 mps 747 mmHg 80%

    Mañana, 24 Junio, Domingo

    Tiempo Temperatura Precipitaciones Viento Presión Humedad
    00:00 +12°C° 0,1 mm 3 mps 747 mmHg 82%
    01:00 +11°C° 0,1 mm 3 mps 747 mmHg 83%
    02:00 +11°C° 0,1 mm 3 mps 747 mmHg 84%
    03:00 +11°C° 0,1 mm 3 mps 747 mmHg 85%
    04:00 +11°C° 0,1 mm 3 mps 747 mmHg 86%
    05:00 +12°C° 0 mm 3 mps 747 mmHg 83%
    06:00 +12°C° 0 mm 4 mps 747 mmHg 81%
    07:00 +13°C° 0 mm 4 mps 747 mmHg 79%
    08:00 +14°C° 0,1 mm 4 mps 747 mmHg 75%
    09:00 +15°C° 0,1 mm 4 mps 747 mmHg 71%
    10:00 +17°C° 0,1 mm 4 mps 747 mmHg 67%
    11:00 +17°C° 0,2 mm 4 mps 747 mmHg 65%
    12:00 +18°C° 0,2 mm 4 mps 746 mmHg 64%
    13:00 +18°C° 0,2 mm 4 mps 746 mmHg 62%
    14:00 +19°C° 0,1 mm 4 mps 746 mmHg 61%
    15:00 +19°C° 0,1 mm 4 mps 746 mmHg 60%
    16:00 +19°C° 0,1 mm 4 mps 746 mmHg 60%
    17:00 +18°C° 0 mm 3 mps 746 mmHg 65%
    18:00 +17°C° 0 mm 2 mps 746 mmHg 70%
    19:00 +17°C° 0 mm 2 mps 746 mmHg 75%
    20:00 +16°C° 0 mm 2 mps 746 mmHg 77%
    21:00 +15°C° 0 mm 2 mps 746 mmHg 79%
    22:00 +14°C° 0 mm 2 mps 747 mmHg 81%
    23:00 +13°C° 0 mm 2 mps 747 mmHg 81%

    Pasado mañana, 25 Junio, Lunes

    Tiempo Temperatura Precipitaciones Viento Presión Humedad
    00:00 +13°C° 0 mm 2 mps 747 mmHg 82%
    01:00 +13°C° 0 mm 2 mps 747 mmHg 82%
    02:00 +13°C° 0 mm 2 mps 746 mmHg 82%
    03:00 +13°C° 0 mm 2 mps 746 mmHg 82%
    04:00 +13°C° 0 mm 2 mps 746 mmHg 82%
    05:00 +14°C° 0 mm 2 mps 747 mmHg 81%
    06:00 +14°C° 0 mm 3 mps 747 mmHg 79%
    07:00 +14°C° 0 mm 3 mps 747 mmHg 77%
    08:00 +17°C° 0,2 mm 3 mps 747 mmHg 72%
    09:00 +18°C° 0,2 mm 3 mps 747 mmHg 68%
    10:00 +19°C° 0,2 mm 3 mps 747 mmHg 63%
    11:00 +20°C° 0,1 mm 3 mps 747 mmHg 60%
    12:00 +21°C° 0,1 mm 4 mps 747 mmHg 57%
    13:00 +22°C° 0,1 mm 4 mps 746 mmHg 53%
    14:00 +22°C° 0,1 mm 3 mps 746 mmHg 54%
    15:00 +22°C° 0,1 mm 3 mps 746 mmHg 54%
    16:00 +22°C° 0,1 mm 3 mps 746 mmHg 54%
    17:00 +21°C° 0,1 mm 3 mps 747 mmHg 60%
    18:00 +20°C° 0,1 mm 2 mps 747 mmHg 66%
    19:00 +19°C° 0,1 mm 2 mps 747 mmHg 72%
    20:00 +17°C° 0 mm 2 mps 747 mmHg 76%
    21:00 +16°C° 0 mm 2 mps 748 mmHg 79%
    22:00 +15°C° 0 mm 2 mps 748 mmHg 83%
    23:00 +14°C° 0 mm 2 mps 748 mmHg 84%

    26 Junio, Martes

    Tiempo Temperatura Precipitaciones Viento Presión Humedad
    00:00 +14°C° 0 mm 2 mps 748 mmHg 86%
    01:00 +13°C° 0 mm 2 mps 748 mmHg 88%
    02:00 +13°C° 0 mm 2 mps 748 mmHg 88%
    03:00 +13°C° 0 mm 2 mps 748 mmHg 89%
    04:00 +12°C° 0 mm 2 mps 748 mmHg 90%
    05:00 +14°C° 0 mm 2 mps 748 mmHg 85%
    06:00 +16°C° 0 mm 3 mps 749 mmHg 80%
    07:00 +17°C° 0 mm 3 mps 749 mmHg 75%
    08:00 +19°C° 0 mm 3 mps 749 mmHg 69%
    09:00 +21°C° 0 mm 3 mps 749 mmHg 62%
    10:00 +22°C° 0 mm 3 mps 749 mmHg 55%
    11:00 +24°C° 0 mm 3 mps 749 mmHg 52%
    12:00 +25°C° 0 mm 3 mps 748 mmHg 49%
    13:00 +26°C° 0 mm 3 mps 748 mmHg 46%
    14:00 +26°C° 0 mm 3 mps 748 mmHg 46%
    15:00 +26°C° 0 mm 3 mps 748 mmHg 46%
    16:00 +26°C° 0 mm 3 mps 748 mmHg 47%
    17:00 +25°C° 0 mm 3 mps 748 mmHg 53%
    18:00 +23°C° 0 mm 2 mps 748 mmHg 59%
    19:00 +21°C° 0 mm 2 mps 748 mmHg 65%
    20:00 +20°C° 0 mm 2 mps 748 mmHg 69%
    21:00 +18°C° 0 mm 2 mps 749 mmHg 72%
    22:00 +17°C° 0 mm 2 mps 749 mmHg 75%
    23:00 +16°C° 0 mm 2 mps 749 mmHg 77%

    27 Junio, Miércoles

    Tiempo Temperatura Precipitaciones Viento Presión Humedad
    00:00 +16°C° 0 mm 2 mps 749 mmHg 80%
    01:00 +15°C° 0 mm 2 mps 749 mmHg 83%
    02:00 +15°C° 0 mm 2 mps 749 mmHg 84%
    03:00 +14°C° 0 mm 2 mps 749 mmHg 86%
    04:00 +14°C° 0 mm 2 mps 749 mmHg 88%
    05:00 +15°C° 0 mm 2 mps 749 mmHg 83%
    06:00 +17°C° 0 mm 2 mps 749 mmHg 78%
    07:00 +19°C° 0 mm 2 mps 749 mmHg 72%
    08:00 +20°C° 0 mm 2 mps 749 mmHg 66%
    09:00 +22°C° 0 mm 3 mps 749 mmHg 60%
    10:00 +25°C° 0 mm 3 mps 749 mmHg 54%
    11:00 +26°C° 0 mm 3 mps 749 mmHg 52%
    12:00 +26°C° 0 mm 3 mps 749 mmHg 49%
    13:00 +27°C° 0 mm 4 mps 749 mmHg 47%
    14:00 +27°C° 0 mm 4 mps 748 mmHg 48%
    15:00 +27°C° 0 mm 4 mps 748 mmHg 49%
    16:00 +27°C° 0 mm 4 mps 748 mmHg 51%
    17:00 +26°C° 0 mm 3 mps 748 mmHg 57%
    18:00 +25°C° 0 mm 3 mps 748 mmHg 63%
    19:00 +24°C° 0 mm 3 mps 748 mmHg 69%
    20:00 +21°C° 0 mm 3 mps 749 mmHg 68%
    21:00 +20°C° 0 mm 3 mps 749 mmHg 67%
    22:00 +19°C° 0 mm 3 mps 749 mmHg 66%
    23:00 +18°C° 0 mm 3 mps 749 mmHg 68%

    28 Junio, Jueves

    Tiempo Temperatura Precipitaciones Viento Presión Humedad
    00:00 +17°C° 0 mm 2 mps 749 mmHg 70%
    01:00 +16°C° 0 mm 2 mps 749 mmHg 72%
    02:00 +16°C° 0 mm 2 mps 749 mmHg 75%
    03:00 +15°C° 0 mm 2 mps 749 mmHg 78%
    04:00 +14°C° 0 mm 1 mps 749 mmHg 80%
    05:00 +16°C° 0 mm 1 mps 749 mmHg 76%
    06:00 +19°C° 0 mm 1 mps 749 mmHg 72%
    07:00 +20°C° 0 mm 1 mps 749 mmHg 68%
    08:00 +21°C° 0 mm 2 mps 749 mmHg 63%
    09:00 +24°C° 0 mm 2 mps 749 mmHg 58%
    10:00 +25°C° 0 mm 2 mps 749 mmHg 52%
    11:00 +26°C° 0 mm 2 mps 749 mmHg 50%
    12:00 +27°C° 0 mm 3 mps 749 mmHg 48%
    13:00 +28°C° 0 mm 3 mps 748 mmHg 46%
    14:00 +28°C° 0 mm 3 mps 748 mmHg 46%
    15:00 +28°C° 0 mm 3 mps 748 mmHg 46%
    16:00 +28°C° 0 mm 3 mps 748 mmHg 46%
    17:00 +27°C° 0 mm 2 mps 748 mmHg 52%
    18:00 +26°C° 0 mm 2 mps 748 mmHg 58%
    19:00 +24°C° 0 mm 1 mps 748 mmHg 64%
    20:00 +23°C° 0 mm 2 mps 748 mmHg 65%
    21:00 +21°C° 0 mm 2 mps 749 mmHg 65%
    22:00 +20°C° 0 mm 2 mps 749 mmHg 66%
    23:00 +20°C° 0 mm 2 mps 749 mmHg 68%
    Mostrar más